Location: Unspecified
(0.0000°N, 0.0000°E)
Time: 14:22:54
(UTC+00:00)

Tiros 1 - Visible Passes

Search period start: 29 January 2015 00:00
Search period end: 08 February 2015 00:00
Orbit: 633 x 666 km, 48.4° (Epoch: 27 January)

Date Brightness Start Highest point End Pass type
(mag) Time Alt. Az. Time Alt. Az. Time Alt. Az.
29 Jan 8.5 18:38:23 10° WNW 18:42:50 43° SW 18:47:19 10° SSE visible
30 Jan 9.4 05:10:17 10° S 05:14:16 27° SE 05:18:17 10° ENE visible
30 Jan 10.3 19:07:23 10° WSW 19:09:46 13° SW 19:11:56 10° SSW visible
31 Jan 7.2 05:36:17 10° SW 05:41:05 89° NW 05:45:48 10° NE visible
01 Feb 9.4 04:21:50 10° S 04:25:42 25° SE 04:29:36 10° ENE visible
02 Feb 7.2 04:47:42 10° SW 04:52:31 83° SE 04:57:15 10° NE visible
03 Feb 9.6 03:38:45 19° ESE 03:38:45 19° ESE 03:40:54 10° ENE visible
03 Feb 8.0 05:16:39 18° W 05:19:17 28° NW 05:23:20 10° N visible
04 Feb 9.1 04:07:02 22° NE 04:07:02 22° NE 04:08:41 10° NE visible
05 Feb 9.6 04:34:39 11° N 04:34:39 11° N 04:34:53 10° NNE visible
